Starlink 11272

operational
NORAD ID: 60723 Int'l Des: 2024-152 Owner: SPXS Country: US Constellation: starlink
LEOCIRCULAR

About Starlink 11272

Description loading...

Live Position

Loading 3D Globe...

Upcoming Passes

Altitude History

Altitude vs Time

uPlot chart will show altitude changes over time

Two-Line Element Set

1 60723U 24152D 25353.46506559 .00000581 00000-0 96546-5 0 9999
2 60723 53.1586 151.8297 0000949 72.4651 287.6471 15.69694650 76232
Epoch: Dec 19, 2025 • Age: 19 hours

Current Status

Altitude 367.7 km
Velocity 7.69 km/s
Sub-Earth Point -25.56°S, 163.67°E
Launch Date Aug 28, 2024
Age 1.3 years
Type internet

Technical Details

Classification Payload
Mass 960.00 kg
Dry Mass 910.00 kg
Total Mass 960.00 kg
Length 0.30 m
Diameter 4.10 m
Span 29.00 m
Shape Box + pan
Manufacturer SPXS
Bus Type Starlink V2MD
Phase Status In Orbit
Owner/State SPXS/US

Large Constellations

Loading constellations...